Weather History for KTPF - September, 2013

Change the Weather History Date:

Sunday, September 29, 2013

  Actual Average (KTPA) Record (KTPA)
Temperature  
Mean Temperature 78 °F 80 °F  
Max Temperature 87 °F 88 °F 93 °F (2002)
Min Temperature 69 °F 73 °F 60 °F (1909)
Degree Days  
Heating Degree Days 0 0  
Month to date heating degree days 0  
Since 1 July heating degree days 0  
Cooling Degree Days 13 15  
Month to date cooling degree days 488  
Year to date cooling degree days 3003  
Growing Degree Days 28 (Base 50)    
Moisture  
Dew Point 66 °F    
Average Humidity 69    
Maximum Humidity 94    
Minimum Humidity 43    
Precipitation  
Precipitation 0.00 in 0.14 in 1.94 in (1929)
Month to date precipitation 6.15  
Year to date precipitation 39.87  
Sea Level Pressure  
Sea Level Pressure 29.97 in    
Wind  
Wind Speed 8 mph (NE)    
Max Wind Speed 13 mph    
Max Gust Speed 16 mph    
Visibility 10 miles    
Events      
T = Trace of Precipitation, MM = Missing Value Source: NWS Daily Summary

Daily Weather History Graph

Daily Weather History Graph

Search for Another Location

Airport or City:

Trip Planner

Search our weather history database for the weather conditions in past years. The results will help you decide how hot, cold, wet, or windy it might be!

Date:

Astronomy

Sep. 29, 2013 Rise Set
Actual Time 7:21 AM EDT 7:17 PM EDT
Civil Twilight 6:58 AM EDT 7:41 PM EDT
Nautical Twilight 6:31 AM EDT 8:08 PM EDT
Astronomical Twilight 6:03 AM EDT 8:35 PM EDT
Moon 2:25 AM EDT (9/29) 3:52 PM EDT (9/29)
Length of Visible Light 12h 42m
Length of Day
11h 56m
Waning Crescent, 27% of the Moon is Illuminated
Sep 29
Waning Crescent
Oct 4
New
Oct 11
First Quarter
Oct 18
Full
Oct 26
Last Quarter

Hourly Weather History & Observations

Time (EDT) Temp. Heat Index Dew Point Humidity Pressure Visibility Wind Dir Wind Speed Gust Speed Precip Events Conditions
12:15 AM 73.4 °F - 69.8 °F 88% 30.01 in 10.0 mi NE 10.4 mph - N/A   Overcast
12:35 AM 73.4 °F - 69.8 °F 88% 30.00 in 10.0 mi NE 12.7 mph - N/A   Overcast
12:55 AM 73.4 °F - 69.8 °F 88% 30.00 in 10.0 mi NE 11.5 mph - N/A   Overcast
1:15 AM 73.4 °F - 68.0 °F 83% 29.99 in 10.0 mi NE 9.2 mph - N/A   Overcast
1:35 AM 73.4 °F - 68.0 °F 83% 29.99 in 10.0 mi NE 8.1 mph - N/A   Overcast
1:55 AM 73.4 °F - 68.0 °F 83% 29.99 in 10.0 mi NE 9.2 mph - N/A   Overcast
2:15 AM 73.4 °F - 68.0 °F 83% 29.98 in 10.0 mi NE 10.4 mph - N/A   Overcast
2:35 AM 71.6 °F - 68.0 °F 88% 29.98 in 10.0 mi NE 9.2 mph - N/A   Mostly Cloudy
2:55 AM 71.6 °F - 68.0 °F 88% 29.98 in 10.0 mi NE 9.2 mph - N/A   Overcast
3:15 AM 71.6 °F - 68.0 °F 88% 29.98 in 10.0 mi NNE 8.1 mph - N/A   Overcast
3:35 AM 71.6 °F - 68.0 °F 88% 29.98 in 10.0 mi NE 8.1 mph - N/A   Overcast
3:55 AM 71.6 °F - 66.2 °F 83% 29.97 in 10.0 mi NNE 6.9 mph - N/A   Overcast
4:15 AM 71.6 °F - 66.2 °F 83% 29.97 in 10.0 mi NE 9.2 mph - N/A   Scattered Clouds
4:35 AM 71.6 °F - 66.2 °F 83% 29.97 in 10.0 mi NE 8.1 mph - N/A   Mostly Cloudy
4:55 AM 71.6 °F - 66.2 °F 83% 29.97 in 10.0 mi NE 10.4 mph - N/A   Overcast
5:15 AM 69.8 °F - 66.2 °F 88% 29.97 in 10.0 mi NE 8.1 mph - N/A   Scattered Clouds
5:35 AM 69.8 °F - 66.2 °F 88% 29.98 in 10.0 mi NE 6.9 mph - N/A   Clear
5:55 AM 69.8 °F - 66.2 °F 88% 29.98 in 10.0 mi NE 8.1 mph - N/A   Clear
6:15 AM 69.8 °F - 66.2 °F 88% 29.98 in 10.0 mi NE 6.9 mph - N/A   Clear
6:35 AM 69.8 °F - 66.2 °F 88% 29.99 in 10.0 mi NE 6.9 mph - N/A   Clear
6:55 AM 69.8 °F - 66.2 °F 88% 29.99 in 10.0 mi NE 8.1 mph - N/A   Clear
7:15 AM 69.8 °F - 66.2 °F 88% 30.00 in 10.0 mi NNE 4.6 mph - N/A   Scattered Clouds
7:35 AM 69.8 °F - 66.2 °F 88% 30.00 in 10.0 mi NE 6.9 mph - N/A   Scattered Clouds
7:55 AM 69.8 °F - 68.0 °F 94% 30.00 in 10.0 mi NE 9.2 mph - N/A   Clear
8:15 AM 69.8 °F - 68.0 °F 94% 30.00 in 10.0 mi NE 8.1 mph - N/A   Clear
8:35 AM 71.6 °F - 68.0 °F 88% 30.00 in 10.0 mi NNE 8.1 mph - N/A   Clear
8:55 AM 73.4 °F - 68.0 °F 83% 30.01 in 10.0 mi NE 8.1 mph - N/A   Clear
9:15 AM 73.4 °F - 68.0 °F 83% 30.01 in 10.0 mi NE 9.2 mph - N/A   Clear
9:35 AM 75.2 °F - 68.0 °F 78% 30.01 in 10.0 mi NE 8.1 mph - N/A   Clear
9:55 AM 77.0 °F - 68.0 °F 74% 30.01 in 10.0 mi NE 9.2 mph - N/A   Clear
10:15 AM 78.8 °F - 68.0 °F 69% 30.01 in 10.0 mi ENE 6.9 mph - N/A   Clear
10:35 AM 78.8 °F - 69.8 °F 74% 30.01 in 10.0 mi NE 5.8 mph - N/A   Clear
10:55 AM 80.6 °F 83.9 °F 69.8 °F 70% 30.01 in 10.0 mi NE 6.9 mph - N/A   Clear
11:15 AM 80.6 °F 83.2 °F 68.0 °F 65% 30.01 in 10.0 mi ENE 6.9 mph - N/A   Clear
11:35 AM 82.4 °F 85.4 °F 68.0 °F 62% 30.00 in 10.0 mi ENE 5.8 mph - N/A   Clear
11:55 AM 82.4 °F 84.6 °F 66.2 °F 58% 30.00 in 10.0 mi NNE 3.5 mph - N/A   Clear
12:15 PM 82.4 °F 83.9 °F 64.4 °F 54% 30.00 in 10.0 mi Calm Calm - N/A   Clear
12:35 PM 82.4 °F 83.9 °F 64.4 °F 54% 29.99 in 10.0 mi NE 3.5 mph - N/A   Clear
12:55 PM 84.2 °F 86.6 °F 66.2 °F 55% 29.98 in 10.0 mi Calm Calm - N/A   Clear
1:15 PM 84.2 °F 86.6 °F 66.2 °F 55% 29.97 in 10.0 mi NNE 4.6 mph - N/A   Clear
1:35 PM 86.0 °F 87.3 °F 64.4 °F 48% 29.96 in 10.0 mi ENE 3.5 mph - N/A   Clear
1:55 PM 86.0 °F 88.2 °F 66.2 °F 51% 29.96 in 10.0 mi NNE 3.5 mph - N/A   Clear
2:15 PM 87.8 °F 89.4 °F 64.4 °F 46% 29.95 in 10.0 mi ENE 3.5 mph - N/A   Clear
2:35 PM 86.0 °F 87.3 °F 64.4 °F 48% 29.94 in 10.0 mi Calm Calm - N/A   Scattered Clouds
2:55 PM 87.8 °F 89.4 °F 64.4 °F 46% 29.93 in 10.0 mi NE 4.6 mph - N/A   Scattered Clouds
3:15 PM 87.8 °F 89.4 °F 64.4 °F 46% 29.93 in 10.0 mi NE 3.5 mph - N/A   Clear
3:35 PM 87.8 °F 88.5 °F 62.6 °F 43% 29.92 in 3.0 mi NE 4.6 mph - N/A   Haze
3:55 PM 87.8 °F 89.4 °F 64.4 °F 46% 29.92 in 10.0 mi ENE 5.8 mph - N/A   Clear
4:15 PM 87.8 °F 88.5 °F 62.6 °F 43% 29.91 in 10.0 mi Calm Calm - N/A   Clear
4:35 PM 87.8 °F 89.4 °F 64.4 °F 46% 29.91 in 10.0 mi ENE 6.9 mph - N/A   Scattered Clouds
4:55 PM 87.8 °F 88.5 °F 62.6 °F 43% 29.91 in 10.0 mi NNE 3.5 mph - N/A   Scattered Clouds
5:15 PM 87.8 °F 89.4 °F 64.4 °F 46% 29.91 in 10.0 mi ENE 8.1 mph - N/A   Mostly Cloudy
5:35 PM 84.2 °F 85.6 °F 64.4 °F 51% 29.91 in 10.0 mi NE 4.6 mph - N/A   Scattered Clouds
5:55 PM 84.2 °F 85.6 °F 64.4 °F 51% 29.91 in 10.0 mi NE 6.9 mph - N/A   Clear
6:15 PM 86.0 °F 86.6 °F 62.6 °F 45% 29.91 in 10.0 mi East 5.8 mph - N/A   Clear
6:35 PM 84.2 °F 85.6 °F 64.4 °F 51% 29.91 in 10.0 mi East 8.1 mph - N/A   Clear
6:55 PM 80.6 °F 81.8 °F 62.6 °F 54% 29.92 in 10.0 mi NE 6.9 mph - N/A   Clear
7:15 PM 80.6 °F 82.3 °F 64.4 °F 58% 29.92 in 10.0 mi NE 5.8 mph - N/A   Clear
7:35 PM 80.6 °F 82.3 °F 64.4 °F 58% 29.93 in 10.0 mi NE 3.5 mph - N/A   Clear
7:55 PM 78.8 °F - 64.4 °F 61% 29.93 in 10.0 mi NE 5.8 mph - N/A   Clear
8:15 PM 78.8 °F - 64.4 °F 61% 29.94 in 10.0 mi NE 6.9 mph - N/A   Clear
8:35 PM 78.8 °F - 66.2 °F 65% 29.95 in 10.0 mi NE 11.5 mph 16.1 mph N/A   Clear
8:55 PM 78.8 °F - 66.2 °F 65% 29.96 in 10.0 mi ENE 9.2 mph - N/A   Scattered Clouds
9:15 PM 77.0 °F - 66.2 °F 69% 29.96 in 10.0 mi ENE 10.4 mph - N/A   Scattered Clouds
9:35 PM 77.0 °F - 66.2 °F 69% 29.97 in 10.0 mi East 10.4 mph - N/A   Clear
9:55 PM 77.0 °F - 66.2 °F 69% 29.97 in 10.0 mi East 9.2 mph - N/A   Clear
10:15 PM 77.0 °F - 64.4 °F 65% 29.98 in 10.0 mi East 8.1 mph - N/A   Clear
10:35 PM 77.0 °F - 64.4 °F 65% 29.98 in 10.0 mi East 6.9 mph - N/A   Clear
10:55 PM 75.2 °F - 66.2 °F 73% 29.98 in 10.0 mi East 8.1 mph - N/A   Clear
11:15 PM 75.2 °F - 66.2 °F 73% 29.98 in 10.0 mi ENE 5.8 mph - N/A   Clear
11:35 PM 75.2 °F - 64.4 °F 69% 29.99 in 10.0 mi East 4.6 mph - N/A   Clear
11:55 PM 73.4 °F - 66.2 °F 78% 29.99 in 10.0 mi East 4.6 mph - N/A   Clear